Weather History for Cushing, OK

Change the Weather History Date:

Wednesday, October 24, 2012

  Actual Average Record
Temperature  
Mean Temperature 71 °F -  
Max Temperature 78 °F 69 °F 89 °F (1950)
Min Temperature 64 °F 46 °F 33 °F (1955)
Cooling Degree Days 6    
Growing Degree Days 21 (Base 50)    
Moisture  
Dew Point 67 °F    
Average Humidity 86    
Maximum Humidity 100    
Minimum Humidity 74    
Precipitation  
Precipitation 0.00 in - - ()
Sea Level Pressure  
Sea Level Pressure 29.83 in    
Wind  
Wind Speed 10 mph (South)    
Max Wind Speed 22 mph    
Max Gust Speed 30 mph    
Visibility 10 miles    
Events      
Averages and records for this station are not official NWS values.
T = Trace of Precipitation, MM = Missing Value Source: NWS Daily Summary

Daily Weather History Graph

Daily Weather History Graph

Search for Another Location

Airport:

Trip Planner

Search our weather history database for the weather conditions in past years. The results will help you decide how hot, cold, wet, or windy it might be!

Date:

Astronomy

Oct. 24, 2012 Rise Set
Actual Time 7:42 AM CDT 6:39 PM CDT
Civil Twilight 7:16 AM CDT 7:05 PM CDT
Nautical Twilight 6:46 AM CDT 7:35 PM CDT
Astronomical Twilight 6:16 AM CDT 8:05 PM CDT
Moon 3:48 PM CDT (10/24) 2:47 AM CDT (10/24)
Length of Visible Light 11h 49m
Length of Day
10h 57m
Waxing Gibbous, 76% of the Moon is Illuminated
Oct 24
Waxing Gibbous
Oct 29
Full
Nov 6
Last Quarter
Nov 13
New
Nov 20
First Quarter

Hourly Weather History & Observations

Time (CDT) Temp. Dew Point Humidity Pressure Visibility Wind Dir Wind Speed Gust Speed Precip Events Conditions
12:15 AM 71.6 °F 68.0 °F 88% 29.85 in 10.0 mi South 6.9 mph - N/A   Clear
12:35 AM 71.6 °F 68.0 °F 88% 29.85 in 10.0 mi South 6.9 mph - N/A   Clear
1:15 AM 69.8 °F 68.0 °F 94% 29.86 in 10.0 mi South 8.1 mph - N/A   Clear
1:35 AM 69.8 °F 68.0 °F 94% 29.86 in 10.0 mi South 9.2 mph - N/A   Clear
1:55 AM 69.8 °F 68.0 °F 94% 29.86 in 10.0 mi South 5.8 mph - N/A   Clear
2:15 AM 68.0 °F 68.0 °F 100% 29.86 in 10.0 mi South 6.9 mph - N/A   Clear
2:35 AM 69.8 °F 68.0 °F 94% 29.87 in 10.0 mi SSE 4.6 mph - N/A   Clear
2:55 AM 68.0 °F 68.0 °F 100% 29.86 in 10.0 mi South 5.8 mph - N/A   Clear
3:15 AM 68.0 °F 66.2 °F 94% 29.87 in 10.0 mi SSE 3.5 mph - N/A   Clear
3:35 AM 68.0 °F 66.2 °F 94% 29.87 in 10.0 mi SSE 3.5 mph - N/A   Clear
3:55 AM 68.0 °F 66.2 °F 94% 29.87 in 10.0 mi SSE 3.5 mph - N/A   Clear
4:15 AM 68.0 °F 66.2 °F 94% 29.86 in 10.0 mi South 8.1 mph - N/A   Clear
4:35 AM 68.0 °F 66.2 °F 94% 29.86 in 10.0 mi South 6.9 mph - N/A   Clear
4:55 AM 68.0 °F 66.2 °F 94% 29.86 in 10.0 mi South 5.8 mph - N/A   Clear
5:15 AM 66.2 °F 66.2 °F 100% 29.86 in 10.0 mi SSE 8.1 mph - N/A   Clear
5:35 AM 66.2 °F 66.2 °F 100% 29.86 in 10.0 mi South 8.1 mph - N/A   Clear
5:55 AM 64.4 °F 64.4 °F 100% 29.87 in 10.0 mi SSE 5.8 mph - N/A   Clear
6:15 AM 64.4 °F 64.4 °F 100% 29.87 in 10.0 mi South 8.1 mph - N/A   Clear
6:35 AM 64.4 °F 64.4 °F 100% 29.88 in 10.0 mi SSE 4.6 mph - N/A   Clear
6:55 AM 64.4 °F 64.4 °F 100% 29.87 in 10.0 mi South 6.9 mph - N/A   Clear
7:15 AM 64.4 °F 64.4 °F 100% 29.88 in 10.0 mi South 5.8 mph - N/A   Clear
7:35 AM 64.4 °F 64.4 °F 100% 29.88 in 10.0 mi South 8.1 mph - N/A   Clear
7:55 AM 64.4 °F 64.4 °F 100% 29.88 in 10.0 mi South 8.1 mph - N/A   Clear
8:15 AM 64.4 °F 64.4 °F 100% 29.89 in 10.0 mi South 8.1 mph - N/A   Clear
8:55 AM 66.2 °F 66.2 °F 100% 29.89 in 10.0 mi South 11.5 mph - N/A   Clear
9:15 AM 68.0 °F 66.2 °F 94% 29.89 in 10.0 mi South 10.4 mph 18.4 mph N/A   Clear
9:35 AM 69.8 °F 68.0 °F 94% 29.89 in 10.0 mi South 16.1 mph 19.6 mph N/A   Scattered Clouds
9:55 AM 69.8 °F 68.0 °F 94% 29.89 in 10.0 mi South 13.8 mph 27.6 mph N/A   Scattered Clouds
10:15 AM 71.6 °F 68.0 °F 88% 29.89 in 10.0 mi South 17.3 mph 21.9 mph N/A   Scattered Clouds
10:35 AM 71.6 °F 68.0 °F 88% 29.89 in 10.0 mi SSW 15.0 mph 24.2 mph N/A   Scattered Clouds
10:55 AM 73.4 °F 68.0 °F 83% 29.89 in 10.0 mi South 18.4 mph 23.0 mph N/A   Scattered Clouds
11:15 AM 75.2 °F 68.0 °F 78% 29.88 in 10.0 mi South 20.7 mph - N/A   Clear
11:35 AM 73.4 °F 68.0 °F 83% 29.88 in 10.0 mi South 17.3 mph 26.5 mph N/A   Clear
11:55 AM 77.0 °F 69.8 °F 78% 29.88 in 10.0 mi South 15.0 mph 20.7 mph N/A   Clear
12:15 PM 78.8 °F 69.8 °F 74% 29.87 in 10.0 mi South 17.3 mph 21.9 mph N/A   Scattered Clouds
12:35 PM 78.8 °F 69.8 °F 74% 29.86 in 10.0 mi South 13.8 mph 19.6 mph N/A   Scattered Clouds
12:55 PM 78.8 °F 69.8 °F 74% 29.86 in 10.0 mi South 21.9 mph 28.8 mph N/A   Scattered Clouds
1:15 PM 78.8 °F 69.8 °F 74% 29.86 in 10.0 mi SSW 16.1 mph 25.3 mph N/A   Mostly Cloudy
1:35 PM 78.8 °F 69.8 °F 74% 29.85 in 10.0 mi SSW 17.3 mph 25.3 mph N/A   Mostly Cloudy
1:55 PM 78.8 °F 69.8 °F 74% 29.84 in 10.0 mi South 17.3 mph 25.3 mph N/A   Mostly Cloudy
2:15 PM 78.8 °F 69.8 °F 74% 29.83 in 10.0 mi SSW 12.7 mph - N/A   Mostly Cloudy
2:35 PM 78.8 °F 69.8 °F 74% 29.83 in 10.0 mi South 18.4 mph 24.2 mph N/A   Mostly Cloudy
2:55 PM 78.8 °F 69.8 °F 74% 29.82 in 10.0 mi South 19.6 mph 24.2 mph N/A   Overcast
3:15 PM 77.0 °F 69.8 °F 78% 29.81 in 10.0 mi SSW 19.6 mph 24.2 mph N/A   Overcast
3:35 PM 77.0 °F 68.0 °F 74% 29.81 in 10.0 mi SSW 17.3 mph - N/A   Overcast
4:15 PM 78.8 °F 69.8 °F 74% 29.80 in 10.0 mi SSW 16.1 mph 23.0 mph N/A   Mostly Cloudy
4:35 PM 77.0 °F 69.8 °F 78% 29.80 in 10.0 mi South 15.0 mph 23.0 mph N/A   Mostly Cloudy
4:55 PM 77.0 °F 69.8 °F 78% 29.79 in 10.0 mi South 11.5 mph - N/A   Mostly Cloudy
5:35 PM 75.2 °F 68.0 °F 78% 29.78 in 10.0 mi South 9.2 mph - N/A   Overcast
5:55 PM 75.2 °F 68.0 °F 78% 29.78 in 10.0 mi South 10.4 mph 23.0 mph N/A   Mostly Cloudy
6:15 PM 73.4 °F 68.0 °F 83% 29.78 in 10.0 mi South 12.7 mph 19.6 mph N/A   Scattered Clouds
6:35 PM 73.4 °F 68.0 °F 83% 29.78 in 10.0 mi South 9.2 mph 16.1 mph N/A   Clear
6:55 PM 73.4 °F 68.0 °F 83% 29.78 in 10.0 mi South 9.2 mph 16.1 mph N/A   Scattered Clouds
7:15 PM 73.4 °F 68.0 °F 83% 29.78 in 10.0 mi South 10.4 mph 17.3 mph N/A   Mostly Cloudy
7:55 PM 71.6 °F 68.0 °F 88% 29.77 in 10.0 mi SSE 8.1 mph 17.3 mph N/A   Scattered Clouds
8:15 PM 71.6 °F 68.0 °F 88% 29.77 in 10.0 mi SSE 10.4 mph 17.3 mph N/A   Clear
8:35 PM 71.6 °F 66.2 °F 83% 29.76 in 10.0 mi SSE 10.4 mph - N/A   Clear
8:55 PM 71.6 °F 66.2 °F 83% 29.76 in 10.0 mi South 10.4 mph 19.6 mph N/A   Clear
9:15 PM 71.6 °F 64.4 °F 78% 29.75 in 10.0 mi SSE 11.5 mph 17.3 mph N/A   Clear
9:35 PM 71.6 °F 64.4 °F 78% 29.73 in 10.0 mi South 13.8 mph 19.6 mph N/A   Clear
9:55 PM 71.6 °F 64.4 °F 78% 29.73 in 10.0 mi South 12.7 mph 24.2 mph N/A   Clear
10:15 PM 71.6 °F 64.4 °F 78% 29.73 in 10.0 mi South 15.0 mph 24.2 mph N/A   Clear
10:35 PM 71.6 °F 64.4 °F 78% 29.73 in 10.0 mi South 12.7 mph 28.8 mph N/A   Clear
10:55 PM 71.6 °F 64.4 °F 78% 29.73 in 10.0 mi South 16.1 mph 21.9 mph N/A   Clear
11:15 PM 71.6 °F 64.4 °F 78% 29.74 in 10.0 mi South 16.1 mph 29.9 mph N/A   Clear
11:35 PM 71.6 °F 64.4 °F 78% 29.75 in 10.0 mi South 16.1 mph 25.3 mph N/A   Clear
11:55 PM 71.6 °F 64.4 °F 78% 29.74 in 10.0 mi South 15.0 mph 21.9 mph N/A   Clear